Powrót do katalogu

COSMOS 1867 COOLANT

AktywnyLEO
NORAD 39654·DEBRIS·🇷🇺 Russia

Wystrzelony Jul 10, 1987 z Baikonur Cosmodrome

Loading…

Następne Przeloty (najbliższe 24 godziny)

TLE

ŚwieżeSource: Space-Track

Epoka: Sep 14, 2026, 21:25 UTC

1 39654U 87060R   26257.89239947  .00000142  00000-0  87008-4 0  9995
2 39654  65.0053 121.4941 0019476 280.4036  79.4854 14.33708440649369

Śledź COSMOS 1867 COOLANT w czasie rzeczywistym z AllMySat

Download on the App Store